Waarnemingen

Advertentie
Mijn weer
Manston, Groot Brittannië (3797): temperatuur & dauwpunt: 21.01.2021 13:00:00 - 27.01.2021 13:00:00 (GMT)Manston, Groot Brittannië (3797): temperatuur -20cm & temperatuur -100cm: 21.01.2021 13:00:00 - 27.01.2021 13:00:00 (GMT)Manston, Groot Brittannië (3797): windsnelheid & windstoten: 21.01.2021 13:00:00 - 27.01.2021 13:00:00 (GMT)Manston, Groot Brittannië (3797): windrichting: 21.01.2021 13:00:00 - 27.01.2021 13:00:00 (GMT)Manston, Groot Brittannië (3797): luchtdruk: 21.01.2021 13:00:00 - 27.01.2021 13:00:00 (GMT)Manston, Groot Brittannië (3797): zicht: 21.01.2021 13:00:00 - 27.01.2021 13:00:00 (GMT)Manston, Groot Brittannië (3797): Zonneschijnduur: 21.01.2021 13:00:00 - 27.01.2021 13:00:00 (GMT)Manston, Groot Brittannië (3797): neerslag: 21.01.2021 13:00:00 - 27.01.2021 13:00:00 (GMT)
Datum & Tijd tt [°C] td [°C] tt -20cm [°C] tt -100cm [°C] ff [km/u] ff [kn] fx [km/u] fx [kn] dd ppp [hPa] vv [km] sd [min] rr [mm]
27.01.2021 13:00:00 - - - - - - - - - - - - -
27.01.2021 12:00:00 9,5 8,5 - - 11 6 - - ZW 1012,1 16 0 0,0
27.01.2021 11:00:00 8,5 8,2 - - 13 7 - - W 1012,5 9 0 0,0
27.01.2021 10:00:00 7,1 7,0 - - 13 7 - - WZW 1011,9 5 0 0,0
27.01.2021 09:00:00 6,4 6,3 4,4 6,7 11 6 - - WZW 1011,7 3,7 0 0,0
27.01.2021 08:00:00 6,4 6,3 - - 11 6 - - W 1011,0 3,8 0 0,0
27.01.2021 07:00:00 6,6 6,4 - - 8 4 - - W 1010,1 3,7 0 0,0
27.01.2021 06:00:00 7,2 7,1 - - 13 7 - - WNW 1010,4 7 0 0,0
27.01.2021 05:00:00 6,7 6,5 - - 13 7 - - WZW 1009,9 7 0 0,0
27.01.2021 04:00:00 6,6 6,4 - - 15 8 - - ZW 1009,6 10 0 0,0
27.01.2021 03:00:00 6,4 6,2 - - 18 10 - - ZZW 1009,9 23 0 0,0
27.01.2021 02:00:00 5,9 5,6 - - 18 10 - - ZZW 1010,4 50 0 0,0
27.01.2021 01:00:00 5,3 5,1 - - 22 12 - - ZZW 1011,1 14 0 0,0
27.01.2021 00:00:00 4,6 4,3 - - 28 15 - - ZZW 1011,8 4,5 - 0,0
26.01.2021 23:00:00 4,2 3,9 - - 28 15 - - Z 1012,1 35 0 0,0
26.01.2021 22:00:00 4,2 3,6 - - 28 15 - - Z 1013,1 7 0 0,0
26.01.2021 21:00:00 4,4 3,2 - - 31 17 - - Z 1013,3 14 0 0,0
26.01.2021 20:00:00 4,2 3,0 - - 24 13 - - Z 1014,0 18 0 0,0
26.01.2021 19:00:00 4,4 3,3 - - 22 12 - - Z 1015,2 13 0 0,0
26.01.2021 18:00:00 4,8 3,3 - - 22 12 - - ZZW 1015,5 14 0 0,0
26.01.2021 17:00:00 5,5 3,0 - - 16 9 - - ZZW 1016,2 18 0 0,0
26.01.2021 16:00:00 5,6 2,8 - - 18 10 - - ZZW 1016,2 29 0 0,0
26.01.2021 15:00:00 5,6 3,4 - - 9 5 - - Z 1016,9 25 0 0,0
26.01.2021 14:00:00 5,3 2,8 - - 9 5 - - ZZW 1017,6 45 0 0,0
26.01.2021 13:00:00 5,0 1,7 - - 9 5 - - ZZW 1017,9 45 0 0,0
26.01.2021 12:00:00 4,2 0,7 - - 8 4 - - Z 1018,1 35 0 0,0
26.01.2021 11:00:00 3,6 -0,3 - - 9 5 - - ZZW 1018,6 40 6 0,0
26.01.2021 10:00:00 2,2 -0,9 - - 11 6 - - ZZW 1018,7 45 0 0,0
26.01.2021 09:00:00 1,7 -1,4 3,9 6,9 11 6 - - ZW 1018,7 40 0 0,0
26.01.2021 08:00:00 1,0 -1,1 - - 11 6 - - ZW 1018,4 45 0 0,0
26.01.2021 07:00:00 0,3 -1,3 - - 11 6 - - WZW 1018,2 45 - 0,0
26.01.2021 06:00:00 -0,2 -1,7 - - 9 5 - - W 1018,0 40 0 0,0
26.01.2021 05:00:00 -0,4 -2,0 - - 5 3 - - WZW 1017,8 30 0 0,0
26.01.2021 04:00:00 0,3 -1,8 - - 15 8 - - W 1017,5 40 0 0,0
26.01.2021 03:00:00 0,2 -2,2 - - 18 10 - - WZW 1017,4 50 0 0,0
26.01.2021 02:00:00 0,5 -1,8 - - 18 10 - - W 1016,8 50 0 0,0
26.01.2021 01:00:00 1,5 -1,5 - - 22 12 - - W 1016,3 50 0 0,0
26.01.2021 00:00:00 1,5 -1,3 - - 21 11 - - W 1016,1 50 - 0,0
25.01.2021 23:00:00 1,8 -1,2 - - 22 12 - - W 1015,8 45 0 0,0
25.01.2021 22:00:00 2,0 -0,9 - - 22 12 - - W 1015,1 50 0 0,0
25.01.2021 21:00:00 1,8 -1,0 - - 22 12 - - W 1014,6 40 0 0,0
25.01.2021 20:00:00 2,5 -1,1 - - 28 15 - - W 1013,9 45 0 0,0
25.01.2021 19:00:00 2,1 -0,9 - - 22 12 - - W 1013,1 30 0 0,0
25.01.2021 18:00:00 2,9 -0,3 - - 22 12 - - W 1012,6 29 0 0,0
25.01.2021 17:00:00 3,4 0,2 - - 24 13 - - W 1011,9 35 6 0,0
25.01.2021 16:00:00 4,0 0,5 - - 24 13 - - W 1011,2 30 60 0,0
25.01.2021 15:00:00 4,2 0,4 - - 24 13 - - W 1010,4 40 60 0,0
25.01.2021 14:00:00 4,0 0,4 - - 24 13 - - W 1010,0 30 60 0,0
25.01.2021 13:00:00 3,3 0,1 - - 26 14 - - WNW 1009,6 20 60 0,0
25.01.2021 12:00:00 2,9 0,1 - - 22 12 - - WNW 1009,3 16 60 0,0
25.01.2021 11:00:00 2,3 -0,4 - - 21 11 - - W 1008,9 22 60 0,0
25.01.2021 10:00:00 1,4 -1,0 - - 16 9 - - W 1008,1 22 60 0,0
25.01.2021 09:00:00 1,3 -1,2 4,2 7,0 13 7 - - WNW 1007,2 23 42 0,0
25.01.2021 08:00:00 1,6 -1,6 - - 24 13 - - NNW 1006,0 35 0 0,0
25.01.2021 07:00:00 1,5 -1,1 - - 21 11 - - NNW 1004,8 29 0 0,0
25.01.2021 06:00:00 1,9 0,0 - - 24 13 - - NNW 1003,8 25 0 0,0
25.01.2021 05:00:00 2,6 -0,3 - - 29 16 - - N 1002,9 35 0 0,0
25.01.2021 04:00:00 2,3 0,0 - - 26 14 57 31 N 1001,4 40 0 0,0
25.01.2021 03:00:00 3,0 1,1 - - 35 19 48 26 N 1000,0 24 0 0,0
25.01.2021 02:00:00 2,3 1,2 - - 24 13 48 26 NNW 999,3 27 0 0,0
25.01.2021 01:00:00 2,4 0,0 - - 39 21 59 32 NNO 998,1 35 0 0,0
25.01.2021 00:00:00 3,3 1,0 - - 31 17 52 28 NNO 997,0 40 - 0,0
24.01.2021 23:00:00 2,0 0,7 - - 26 14 - - NNO 996,2 2,8 0 0,0
24.01.2021 22:00:00 2,7 1,4 - - 16 9 - - N 995,3 30 0 0,0
24.01.2021 21:00:00 2,1 1,9 - - 9 5 - - NNW 994,6 8 0 0,0
24.01.2021 20:00:00 1,4 1,1 - - 18 10 - - W 994,4 3,5 0 0,0
24.01.2021 19:00:00 1,6 1,3 - - 22 12 - - W 993,9 7 0 0,0
24.01.2021 18:00:00 2,3 1,9 - - 9 5 - - W 993,7 11 0 0,0
24.01.2021 17:00:00 2,4 2,0 - - 15 8 - - OZO 993,6 15 0 0,0
24.01.2021 16:00:00 1,6 1,3 - - 24 13 - - ZO 993,9 5 0 0,0
24.01.2021 15:00:00 2,4 1,1 - - 28 15 - - ZZO 994,2 26 0 0,0
24.01.2021 14:00:00 3,5 0,5 - - 29 16 - - ZO 994,6 35 0 0,0
24.01.2021 13:00:00 4,2 0,6 - - 28 15 - - ZZO 995,8 40 0 0,0
24.01.2021 12:00:00 4,0 0,9 - - 18 10 - - ZZO 996,9 45 0 0,0
24.01.2021 11:00:00 3,7 1,4 - - 24 13 - - ZO 997,8 35 0 0,0
24.01.2021 10:00:00 1,2 -0,7 - - 13 7 - - OZO 998,4 45 0 0,0
24.01.2021 09:00:00 -0,5 -1,8 4,7 7,0 13 7 - - ZO 999,0 40 0 0,0
24.01.2021 08:00:00 -1,3 -2,4 - - 9 5 - - Z 999,4 30 0 0,0
24.01.2021 07:00:00 -1,6 -2,7 - - 11 6 - - ZW 999,7 30 0 0,0
24.01.2021 06:00:00 -1,9 -2,9 - - 13 7 - - ZW 999,6 29 0 0,0
24.01.2021 05:00:00 -1,8 -2,6 - - 9 5 - - WZW 999,5 20 0 0,0
24.01.2021 04:00:00 -1,9 -2,9 - - 13 7 - - W 999,7 25 0 0,0
24.01.2021 03:00:00 -1,4 -2,4 - - 13 7 - - WZW 999,5 20 0 0,0
24.01.2021 02:00:00 -1,0 -1,8 - - 16 9 - - W 999,1 17 0 0,0
24.01.2021 01:00:00 -0,5 -1,3 - - 15 8 - - W 998,6 11 0 0,0
24.01.2021 00:00:00 1,0 -0,7 - - 16 9 52 28 WNW 998,1 30 - 0,0
23.01.2021 23:00:00 1,4 -1,3 - - 16 9 - - WNW 997,6 50 0 0,0
23.01.2021 22:00:00 1,5 -0,5 - - 21 11 - - WNW 997,2 28 0 0,0
23.01.2021 21:00:00 1,9 -0,7 - - 24 13 - - NW 996,7 40 0 0,0
23.01.2021 20:00:00 2,3 -0,8 - - 22 12 - - WNW 996,4 45 0 0,0
23.01.2021 19:00:00 2,0 -1,0 - - 18 10 - - WNW 995,9 45 0 0,0
23.01.2021 18:00:00 2,2 -0,2 - - 16 9 - - NW 995,7 50 0 0,0
23.01.2021 17:00:00 2,4 0,8 - - 13 7 - - WNW 995,4 20 0 0,0
23.01.2021 16:00:00 2,3 0,9 - - 15 8 - - NW 995,0 19 0 0,0
23.01.2021 15:00:00 1,8 0,8 - - 18 10 - - NW 994,7 11 0 0,0
23.01.2021 14:00:00 2,1 1,1 - - 15 8 - - NW 994,3 13 0 0,0
23.01.2021 13:00:00 2,9 1,4 - - 16 9 - - NW 994,3 22 0 0,0
23.01.2021 12:00:00 2,6 1,5 - - 9 5 - - NW 994,5 21 0 0,0
23.01.2021 11:00:00 1,6 1,3 - - 8 4 - - WNW 994,3 21 0 0,0
23.01.2021 10:00:00 0,5 0,0 - - 5 3 - - ZW 994,5 11 0 0,0
23.01.2021 09:00:00 0,4 -0,2 5,2 7,0 8 4 - - WNW 994,3 18 - 0,0
23.01.2021 08:00:00 0,0 -0,5 - - 8 4 - - W 994,3 26 0 0,0
23.01.2021 07:00:00 0,2 -0,4 - - 11 6 - - WZW 994,2 25 0 0,0
23.01.2021 06:00:00 0,9 0,2 - - 9 5 - - WZW 994,0 27 0 0,0
23.01.2021 05:00:00 2,3 1,4 - - 11 6 - - ZW 994,2 40 0 0,0
23.01.2021 04:00:00 2,1 1,3 - - 15 8 - - WZW 994,2 35 0 0,0
23.01.2021 03:00:00 1,7 0,7 - - 11 6 - - ZW 994,3 45 0 0,0
23.01.2021 02:00:00 2,2 0,9 - - 16 9 - - WZW 994,0 45 0 0,0
23.01.2021 01:00:00 3,2 1,7 - - 13 7 - - WZW 994,1 50 0 0,0
23.01.2021 00:00:00 2,6 1,1 - - 15 8 - - ZW 994,0 50 - 0,0
22.01.2021 23:00:00 2,6 1,3 - - 13 7 - - ZZW 994,0 35 0 0,0
22.01.2021 22:00:00 3,0 1,5 - - 11 6 - - ZZW 993,9 45 0 0,0
22.01.2021 21:00:00 3,3 2,0 - - 8 4 - - ZZW 994,0 50 0 0,0
22.01.2021 20:00:00 3,0 1,3 - - 11 6 - - Z 994,4 23 0 0,0
22.01.2021 19:00:00 2,9 0,9 - - 8 4 - - Z 994,7 30 0 0,0
22.01.2021 18:00:00 3,1 1,4 - - 11 6 - - ZZW 995,0 19 0 0,0
22.01.2021 17:00:00 3,4 1,0 - - 9 5 - - ZZW 994,8 28 0 0,0
22.01.2021 16:00:00 4,9 1,3 - - 9 5 - - Z 994,5 35 18 0,0
22.01.2021 15:00:00 6,2 1,3 - - 13 7 - - ZZW 994,3 40 60 0,0
22.01.2021 14:00:00 6,3 1,7 - - 13 7 - - ZW 993,8 29 60 0,0
22.01.2021 13:00:00 6,6 1,3 - - 16 9 - - W 994,1 40 60 0,0
22.01.2021 12:00:00 6,3 2,3 - - 16 9 - - W 993,9 30 54 0,0
22.01.2021 11:00:00 3,7 1,8 - - 15 8 - - ZW 993,7 35 60 0,0
22.01.2021 10:00:00 1,6 0,3 - - 15 8 - - W 993,3 30 30 0,0
22.01.2021 09:00:00 1,0 0,0 6,0 7,0 16 9 - - ZW 992,7 40 0 0,0
22.01.2021 08:00:00 0,5 -0,2 - - 15 8 - - ZW 991,7 35 0 0,0
22.01.2021 07:00:00 0,2 -0,5 - - 9 5 - - ZW 991,0 35 0 0,0
22.01.2021 06:00:00 0,4 -0,5 - - 9 5 - - ZZW 990,1 27 0 0,0
22.01.2021 05:00:00 1,6 0,6 - - 16 9 - - WZW 989,8 35 0 0,0
22.01.2021 04:00:00 1,7 0,7 - - 16 9 - - WZW 989,4 35 0 0,0
22.01.2021 03:00:00 2,0 0,8 - - 13 7 - - WZW 988,9 35 0 0,0
22.01.2021 02:00:00 2,6 1,3 - - 21 11 - - W 988,1 45 0 0,0
22.01.2021 01:00:00 3,0 2,2 - - 16 9 - - WZW 987,4 30 0 0,0
22.01.2021 00:00:00 3,6 2,6 - - 18 10 - - WZW 986,7 35 - 0,0
21.01.2021 23:00:00 4,3 3,0 - - 16 9 - - WZW 986,1 40 0 0,0
21.01.2021 22:00:00 4,6 3,2 - - 13 7 - - ZW 985,1 30 0 0,0
21.01.2021 21:00:00 5,0 2,8 - - 13 7 - - WZW 984,5 19 0 0,0
21.01.2021 20:00:00 4,5 3,3 - - 13 7 - - ZZO 983,9 35 0 0,0
21.01.2021 19:00:00 4,5 3,1 - - 13 7 - - ZO 984,1 45 0 0,0
21.01.2021 18:00:00 4,7 3,5 - - 15 8 - - ZZO 985,0 30 0 0,0
21.01.2021 17:00:00 5,1 3,6 - - 18 10 - - Z 986,1 18 0 0,0
21.01.2021 16:00:00 6,4 4,0 - - 13 7 - - Z 986,3 30 0 0,0
21.01.2021 15:00:00 4,8 2,8 - - 35 19 63 34 ZW 987,6 6 18 0,0
21.01.2021 14:00:00 9,5 4,1 - - 35 19 54 29 ZW 987,2 30 24 0,0
21.01.2021 13:00:00 9,2 2,9 - - 34 18 54 29 ZW 987,6 26 54 0,0

tt = temperatuur
td = dauwpunt
tt -20cm = temperatuur -20cm
tt -100cm = temperatuur -100cm
ff = windsnelheid
fx = windstoten
dd = windrichting
ppp = luchtdruk
vv = zicht
sd = Zonneschijnduur
rr = neerslag

Weerstations in de omgeving